Amos 5

operational
NORAD ID: 37950 Int'l Des: 2011-074 Owner: IAIS Country: IL
HEOCIRCULAR

关于 Amos 5

正在加载描述...

实时位置

正在加载3D地球...

即将过境

高度历史

Altitude vs Time

uPlot chart will show altitude changes over time

两行轨道根数

1 37950U 11074A 26062.46620810 -.00000365 00000-0 00000-0 0 9995
2 37950 8.5686 61.9036 0002070 292.9249 86.9700 1.00202270 51943
Epoch: Mar 3, 2026 • Age: 27 hours

当前状态

高度 35799.7 km
速度 3.07 km/s
星下点 -8.48°S, 112.47°E
发射日期 Dec 11, 2011
运行时间 14.2 years
类型 other

技术详情

分类 Payload
质量 1927.00 kg
干质量 1200.00 kg
总质量 1927.00 kg
长度 4.00 m
直径 2.00 m
跨度 10.00 m
形状 Box + 2 Pan
制造商 RESH
平台类型 Ekspress-1000H
阶段状态 In Orbit
所有者/国家 IAIS/IL

大型星座

Loading constellations...